カタログに戻る

THOR ABLESTAR DEB

運用中LEO
NORAD 337·DEBRIS·🇺🇸 United States

打ち上げ Jun 29, 1961 から Cape Canaveral Space Force Station

Loading…

次のパス (今後24時間)

TLE

最新Source: Space-Track

元期: Sep 5, 2026, 23:56 UTC

1 00337U 61015DP  26248.99740584  .00000236  00000-0  30232-3 0  9998
2 00337  67.0070  91.2128 0105407 203.8890 155.7273 13.76467742255903

AllMySatでTHOR ABLESTAR DEBをリアルタイム追跡

Download on the App Store